Location: Unspecified
(0.0000°N, 0.0000°E)
Time: 04:49:06
(UTC+00:00)

OTV 5 (USA 277) - Pass Details

Date: 19 May 2019
Orbit: 310 x 325 km, 54.5° (Epoch: 08 May)

Event Time Altitude Azimuth Distance (km) Brightness Sun altitude
Rises 19:35:45 0° 327° (NNW) 2,011 ? -23.2°
Reaches altitude 10° 19:37:42 10° 326° (NW) 1,188 ? -23.7°
Enters shadow 19:38:22 16° 325° (NW) 911 ? -23.9°
